Regional Weather Roundup
Issued by NWS Upton, NY

Current Version | Previous Version | Graphics & Text | Print | Product List | Glossary Off
Versions: 1 2 3 4 5 6 7 8 9 10 11 12 13 14 15 16 17 18 19 20 21 22 23 24 25 26 27

000
ASUS41 KOKX 231208
RWROKX

REGIONAL WEATHER ROUNDUP
NATIONAL WEATHER SERVICE NEW YORK NY
700 AM EST MON JAN 23 2017

NOTE: "FAIR" INDICATES FEW OR NO CLOUDS BELOW 12,000 FEET WITH NO
SIGNIFICANT WEATHER AND/OR OBSTRUCTIONS TO VISIBILITY.

NYZ071-072-176-178-NJZ106-104-231300-
NEW YORK CITY METRO AREA

CITY           SKY/WX    TMP DP  RH WIND       PRES   REMARKS
Central Park   CLOUDY    41  34  76 E15G29    29.84F
Wall St Helipt CLOUDY    42  35  76 NE22G30   29.82R
LaGuardia APRT CLOUDY    43  34  70 E29G37    29.83F
Kennedy INTL   CLOUDY    43  36  76 NE22G35   29.83R
Breezy Point     N/A     39 N/A N/A NE17G24     N/A  WCI  30
Newark/Liberty CLOUDY    42  35  76 NE16G30   29.82R
Teterboro      CLOUDY    42  35  76 E14G24    29.83S
$$

NYZ177-179-078>081-231300-
LONG ISLAND NEW YORK

CITY           SKY/WX    TMP DP  RH WIND       PRES   REMARKS
Jones Beach      N/A     39 N/A N/A E31G41      N/A  WCI  27
Matinecock PT    N/A     41 N/A N/A E30G40      N/A
Farmingdale    CLOUDY    41  32  70 E21G35    29.82F
MacArthur/ISP  CLOUDY    40  32  73 E23G37    29.85S WCI  30
Shirley        CLOUDY    39  31  72 NE10G35   29.87S WCI  32
Westhampton    CLOUDY    39  30  70 E18G28    29.88R WCI  30
Southampton    NOT AVBL
Bridgehampton  NOT AVBL
East Hampton   CLOUDY    38  32  77 E20G28    29.89S WCI  28
Montauk          N/A     39  32  76 NE22G31   29.89F WCI  29
$$

NYZ052-065-067-231300-
HUDSON VALLEY

CITY           SKY/WX    TMP DP  RH WIND       PRES   REMARKS
White Plains   MOCLDY    40  33  76 E13G25    29.84R WCI  32
Newburgh       CLOUDY    39  36  87 E17       29.89R WCI  30
Montgomery     LGT RAIN  39  34  82 NE9G20    29.86R WCI  33
Poughkeepsie   CLOUDY    39  31  72 NE10G23   29.90R WCI  32
Albany         CLOUDY    38  28  67 E9        29.94S WCI  31
$$

NJZ001-105-106-008-010-013-015-019>022-104-231300-
NEW JERSEY

CITY           SKY/WX    TMP DP  RH WIND       PRES   REMARKS
Newark/Liberty CLOUDY    42  35  76 NE16G30   29.82R
Teterboro      CLOUDY    42  35  76 E14G24    29.83S
Caldwell       CLOUDY    42  35  76 E18G26    29.82F
Somerville     CLOUDY    42  35  76 E12G18    29.78S
Linden         CLOUDY    42  35  75 E23G30    29.82S
Sussex         CLOUDY    40  36  86 NE20G29   29.81F WCI  30
Andover          N/A     40  35  83 VRB7      29.79F
Trenton        CLOUDY    41  38  89 E25G32    29.75R
Millville      LGT RAIN  45  44  97 E28G37    29.63S FOG
Atlantic City  CLOUDY    45  42  89 E26G40    29.66R
Wrightstown    LGT RAIN  41  39  93 NE25G33   29.70R FOG
Toms River     LGT RAIN  42  40  92 NE22G32   29.76R FOG
Belmar         LGT RAIN  41  37  86 NE26G37   29.77S
$$

PAZ047>061-062-071-231300-
EASTERN PENNSYLVANIA

CITY           SKY/WX    TMP DP  RH WIND       PRES   REMARKS
Philadelphia   DRIZZLE   43  39  86 NE22G32   29.70R
Allentown      CLOUDY    43  35  73 E25G35    29.74F
Scranton       CLOUDY    40  36  86 NE13G21   29.74F WCI  32
$$

CTZ002-004>006-009-010-012-RIZ004-006-007-MAZ004-011-015-231300-
SOUTHERN NEW ENGLAND
 IN CT

CITY           SKY/WX    TMP DP  RH WIND       PRES   REMARKS
Bradley INTL   CLOUDY    35  33  92 NE12      29.97R WCI  27
Hartford       CLOUDY    38  31  76 NE15G21   29.96R WCI  29
Danbury        MOCLDY    38  32  79 NE16G22   29.88S WCI  29
Wtrbury/Oxford CLOUDY    36  28  75 E17G32    29.88S WCI  25
Bridgeport     CLOUDY    42  31  64 NE21G30   29.88F
Meriden        CLOUDY    40  30  67 NE16G24   29.92S WCI  31
New Haven      CLOUDY    40  30  67 NE14G23   29.88F WCI  32
Chester        CLOUDY    37  30  75 NE15G21   29.89S WCI  28
Groton         CLOUDY    39  30  70 NE21G30   29.91F WCI  29
Wilimantic     CLOUDY    38  32  79 E15G21    29.96R WCI  29

 IN RI

CITY           SKY/WX    TMP DP  RH WIND       PRES   REMARKS
Providence     CLOUDY    36  31  82 NE14      29.98R WCI  27
Block Island   NOT AVBL
Westerly       CLOUDY    39  28  64 NE16G25   29.93R WCI  30
 IN MA

CITY           SKY/WX    TMP DP  RH WIND       PRES   REMARKS
Boston         FLURRIES  36  33  89 E22G30    30.02F WCI  25
Worcester      LGT SNOW  29  27  92 NE14G22   29.94F FOG     WCI  18
Westfield      CLOUDY    35  30  82 N9        29.98R WCI  28
Provincetown   CLOUDY    36  32  85 E17G25    30.01S WCI  26
Nantucket      MOCLDY    38  31  76 NE21G30   29.92S WCI  28
$$

ANZ330-335-338-340-345-350-353-355-231300-
COASTAL MARINE OBSERVATIONS


STATION/POSITION TIME  SKY/WX   TEMP    WIND        PRES    VSBY  WAVE
                                AIR SEA DIR/SP/G                  HT/PER
                 (UTC)          (F)     (DEG/KT/KT) (MB)    (MI)  (FT/S)
NY HARB ENTRANCE 1050            42 43   60/ 29/ 37 1007.1         11/ 8
20 S FIRE ISLAND 1050            44 45   60/ 31/ 39 1006.9         13/ 8
GREAT SOUTH BAY  NOT AVBL
23 SSW MONTAUK P 1050            42 47   60/ 31/ 39 1010.3         12/ 8
15 E BARNEGAT LI 1130               48                N/A          14/10
HUDSON CANYON    1050            48 52              1005.1         16/ 9
KINGS POINT      1136            41 40              1010.4
EXECUTION ROCKS  1145            41      70/ 23/ 31   N/A
CENTRAL LI SOUND 1130            41      80/ 25/ 31   N/A           4/ 4
EASTERN LI SOUND NOT AVBL
ROBBINS REEF     1136            42      60/ 23/ 29 1009.3
$$


>>>>>>>>>>>>>>>>>>>>>>>>>>>> KEY <<<<<<<<<<<<<<<<<<<<<<<<<<<
>                                                          <
>     SKY/WX - Sky Condition/Present Weather               <
>     TMP    - Temperature in Fahrenheit                   <
>     DP     - Dew Point in Fahrenheit                     <
>     RH     - Relative Humidity in Percent                <
>     WIND   - Direction (from) and Speed in MPH           <
>     PRES   - Mean Sea Level Pressure (inches of Hg)      <
>     WCI    - Wind Chill Index                            <
>     VSB    - VISIBILITY IN MILES                         <
>     HX     - HEAT INDEX                                  <
>     TC     - TEMPERATURE IN CELSIUS                      <
>     VRB    - VARIABLE WIND DIRECTION                     <
>                                                          <
>>>>>>>>>>>>>>>>>>>>>>>>>>>> KEY <<<<<<<<<<<<<<<<<<<<<<<<<<<




USA.gov is the U.S. government's official web portal to all federal, state and local government web resources and services.